[[{"header":{"parameterUnit":"m.s-1","parameterCategory":2,"la1":30.2991,"la2":30.254,"lo1":-89.0895,"lo2":-89.0444,"dy":0.0017,"dx":0.0017,"nx":28,"ny":28,"refTime":"2025-02-07T09:00:00:Z","depth":"0","parameterNumber":2,"parameterNumberName":"U-component_of_CURRENTS"},"data":[0,0,0,0,0,0,0,0,0,0,0,0,0,0,0,0,0,0,0,0,0,0,0,0,0,0,0,0,0,0,0,0,0,0,0,0,0,0,0,0,0,0,0,0,0,0,0,0,0,0,0,0,0,0,0,0,0,0,0.2026,0.2025,0,0.1987,0.1986,0.1986,0.1959,0.1959,0.1959,0.1959,0.192,0.1919,0.1918,0,0,0,0,0,0,0,0,0,0,0,0,0,0.2091,0.209,0.2026,0.2025,0.2025,0.1987,0.1986,0.1985,0.1959,0.1959,0.1959,0.1959,0.192,0.1919,0.1918,0,0,0,0,0,0,0,0,0,0,0,0,0,0.2057,0.2089,0.2026,0.2009,0.2007,0.1987,0.1986,0.1985,0.1959,0.1959,0.1959,0.1959,0.1921,0.1919,0.1918,0.1909,0,0,0.1913,0.1913,0,0,0,0,0,0,0,0,0.2059,0.2054,0.2011,0.201,0.2008,0.1979,0.1995,0.1961,0.1959,0.1975,0.1959,0.1959,0.1941,0.1938,0.1928,0.1908,0.1906,0.1913,0.1912,0.1912,0.1911,0,0,0,0,0,0,0,0.2061,0.2056,0.2008,0.2011,0.2009,0.2008,0.2003,0.1988,0.1958,0.1974,0.1972,0.1971,0.194,0.193,0.1927,0.1905,0.1913,0.1912,0.1911,0.191,0.1919,0.192,0,0,0,0,0,0,0.2069,0.2058,0.201,0.2007,0.2036,0.2007,0.2001,0.1987,0.1958,0.1954,0.1971,0.197,0.1932,0.1929,0.1926,0.1946,0.1912,0.191,0.1909,0.1918,0.1919,0.1921,0,0,0,0,0,0,0.207,0.2064,0.2011,0.2034,0.2028,0.2006,0.1991,0.1986,0.1979,0.1956,0.1951,0.1969,0.1932,0.1928,0.1923,0.1943,0.1909,0.1908,0.1917,0.1918,0.192,0.1967,0,0,0,0,0,0,0.2072,0.2064,0.2059,0.2034,0.2027,0.2001,0.1991,0.1986,0.1979,0.1977,0.1952,0.1948,0.1932,0.1925,0.1921,0.1941,0.1907,0.1915,0.1917,0.1919,0.1964,0.197,0.1975,0,0,0,0,0,0.2074,0.2061,0.2059,0.2053,0.2019,0.2001,0.1997,0.1981,0.1979,0.1974,0.1966,0.1949,0.1936,0.1924,0.1919,0.1939,0.1914,0.1917,0.1919,0.1961,0.1969,0.1975,0,0,0,0,0,0,0.208,0.2057,0.2054,0.2033,0.2022,0.1997,0.1991,0.1985,0.1973,0.1974,0.1955,0.195,0.1959,0.1942,0.1929,0.195,0.1926,0.1928,0.196,0.1967,0.1972,0.1968,0.1906,0,0,0,0,0,0.2082,0.207,0.205,0.2037,0.2031,0.2015,0.2008,0.1998,0.1985,0.1979,0.1963,0.1958,0.1965,0.1959,0.1955,0.1956,0.1966,0.197,0.1976,0.198,0.1975,0.2023,0.2033,0.1929,0.1929,0.1929,0,0,0.2083,0.2069,0.2062,0.2039,0.2028,0.2021,0.2009,0.1999,0.2,0.1978,0.1972,0.1974,0.1971,0.198,0.1983,0.1967,0.2018,0.1984,0.1988,0.198,0.2027,0.2037,0.2046,0.1931,0.193,0.193,0,0,0.2076,0.2065,0.2052,0.2046,0.2034,0.2028,0.2028,0.2008,0.2005,0.2002,0.2002,0.2015,0.2001,0.2012,0.2017,0.205,0.205,0.2053,0.2071,0.2119,0.2128,0.2136,0.217,0.2181,0.2052,0.2052,0.2052,0,0.208,0.2056,0.2048,0.2037,0.2035,0.2033,0.2026,0.2026,0.2009,0.2017,0.2005,0.2028,0.202,0.2057,0.2067,0.2062,0.2085,0.2045,0.2127,0.2135,0.2142,0.2175,0.2186,0.2054,0.2054,0.2054,0.2054,0,0.2061,0.2049,0.2043,0.2033,0.2033,0.2026,0.203,0.2035,0.2037,0.2039,0.207,0.2071,0.2086,0.2095,0.2084,0.2139,0.2138,0.2133,0.2109,0.2155,0.2188,0.2198,0.2058,0.2057,0.2056,0.2056,0,0,0.2045,0.2033,0.2029,0.2028,0.203,0.2025,0.2045,0.2057,0.2076,0.2081,0.2108,0.2129,0.2139,0.2145,0.2153,0.2184,0.2253,0.2176,0.2178,0.2209,0.2358,0.2244,0.2244,0.2269,0.2271,0.2272,0.2363,0,0.2031,0.2011,0.2012,0.201,0.2004,0.2023,0.204,0.2061,0.2082,0.2108,0.214,0.2165,0.2159,0.2173,0.2211,0.2247,0.2282,0.2229,0.2308,0.231,0.2203,0.2253,0.209,0.2147,0.2374,0.2375,0.2377,0,0.2004,0.1998,0.1986,0.2,0.2,0.2006,0.2044,0.2059,0.2112,0.2129,0.2176,0.22,0.2259,0.2238,0.2338,0.2308,0.2332,0.2354,0.2358,0.2237,0.2215,0.2136,0.2158,0.2058,0.2393,0.2392,0.239,0,0.1985,0.1979,0.1971,0.1973,0.1989,0.1999,0.2016,0.2064,0.2089,0.2147,0.2181,0.2252,0.2294,0.2349,0.2396,0.2377,0.2496,0.2479,0.2402,0.2395,0.226,0.2237,0.2187,0.2541,0.2541,0.2541,0.254,0,0.1963,0.1958,0.196,0.1955,0.1962,0.1982,0.2007,0.2038,0.2093,0.2136,0.2191,0.2245,0.2325,0.2399,0.2427,0.245,0.2532,0.2409,0.2411,0.2271,0.2248,0.2155,0.2139,0.2544,0.2543,0.2543,0.2542,0,0.1941,0.1939,0.1933,0.1945,0.1948,0.1956,0.1993,0.2021,0.2075,0.2139,0.2161,0.2263,0.2346,0.2416,0.2508,0.248,0.2416,0.2499,0.2317,0.2293,0.207,0.2063,0.1951,0.1913,0.2416,0.2414,0.2412,0,0.1925,0.1917,0.192,0.1919,0.1922,0.1936,0.1953,0.2002,0.2038,0.2149,0.2183,0.228,0.2337,0.2422,0.2377,0.2395,0.2351,0.2248,0.2159,0.203,0.2028,0.1952,0.1925,0.2021,0.2016,0.2012,0.2009,0,0.1906,0.1906,0.1905,0.1899,0.1906,0.1918,0.1946,0.197,0.2043,0.2103,0.2189,0.2242,0.2278,0.2195,0.2182,0.2178,0.2077,0.216,0.2088,0.1754,0.161,0.1581,0.1994,0.1973,0.1976,0.1979,0.1981,0.1982,0.1895,0.189,0.1884,0.1874,0.1884,0.1892,0.1887,0.1935,0.1979,0.2033,0.2126,0.2125,0.2031,0.196,0.1947,0.1731,0.1808,0.163,0.1651,0.1599,0.1482,0.1793,0.1725,0.1727,0.1729,0.1731,0.1732,0,0.1871,0.1866,0.1861,0.1843,0.1831,0.1849,0.1873,0.186,0.1886,0.1922,0.1963,0.1795,0.166,0.157,0.1332,0.1226,0.1195,0.1191,0.1065,0.1085,0.1407,0.1305,0.1065,0.1065,0.1066,0.1066,0.1066,0.1066,0.1862,0.184,0.1827,0.1784,0.1773,0.1742,0.1741,0.174,0.1736,0.1642,0.1517,0.1463,0.1297,0.1045,0.0853,0.085,0.0801,0.0695,0.0793,0.1015,0.1057,0.1098,0.0995,0.0695,0.0694,0.0369,0.0366,0.0364]},{"header":{"parameterUnit":"m.s-1","parameterCategory":2,"la1":30.2991,"la2":30.254,"lo1":-89.0895,"lo2":-89.0444,"dy":0.0017,"dx":0.0017,"nx":28,"ny":28,"refTime":"2025-02-07T09:00:00:Z","depth":"0","parameterNumber":3,"parameterNumberName":"V-component_of_CURRENTS"},"data":[0,0,0,0,0,0,0,0,0,0,0,0,0,0,0,0,0,0,0,0,0,0,0,0,0,0,0,0,0,0,0,0,0,0,0,0,0,0,0,0,0,0,0,0,0,0,0,0,0,0,0,0,0,0,0,0,0,0,0.0279,0.0279,0,0.0282,0.0282,0.0282,0.0276,0.0276,0.0276,0.0276,0.0256,0.0256,0.0255,0,0,0,0,0,0,0,0,0,0,0,0,0,0.0258,0.0258,0.0279,0.0279,0.0279,0.0282,0.0282,0.0282,0.0276,0.0276,0.0276,0.0276,0.0256,0.0256,0.0255,0,0,0,0,0,0,0,0,0,0,0,0,0,0.0264,0.0259,0.0279,0.0277,0.0277,0.0282,0.0282,0.0282,0.0276,0.0276,0.0276,0.0276,0.0256,0.0256,0.0255,0.0255,0,0,0.0253,0.0253,0,0,0,0,0,0,0,0,0.0264,0.0265,0.0278,0.0278,0.0277,0.0279,0.0268,0.0272,0.0276,0.0276,0.0276,0.0276,0.0262,0.0261,0.0261,0.0254,0.0253,0.0253,0.0253,0.0252,0.0252,0,0,0,0,0,0,0,0.0263,0.0264,0.0279,0.0278,0.0278,0.0273,0.0274,0.0268,0.0269,0.0276,0.0275,0.0277,0.0262,0.0262,0.0261,0.0253,0.0253,0.0253,0.0252,0.0252,0.0246,0.0246,0,0,0,0,0,0,0.0266,0.0264,0.0279,0.028,0.0271,0.0274,0.0274,0.0278,0.0269,0.0268,0.0277,0.0277,0.0263,0.0261,0.026,0.0274,0.0252,0.0252,0.0252,0.0246,0.0246,0.0247,0,0,0,0,0,0,0.0265,0.0267,0.0279,0.0272,0.0274,0.0274,0.0279,0.0278,0.028,0.0271,0.0269,0.028,0.0263,0.0261,0.0258,0.0273,0.0252,0.0251,0.0246,0.0246,0.0246,0.0293,0,0,0,0,0,0,0.0265,0.0267,0.027,0.0273,0.0274,0.0288,0.0279,0.0279,0.0282,0.0281,0.0273,0.0271,0.0263,0.0259,0.0258,0.0271,0.0251,0.0245,0.0246,0.0246,0.0291,0.0295,0.0298,0,0,0,0,0,0.0264,0.0271,0.027,0.0272,0.0279,0.0289,0.029,0.0288,0.0282,0.0288,0.0279,0.0271,0.0261,0.0259,0.0257,0.0271,0.0245,0.0246,0.0246,0.0289,0.0294,0.0298,0,0,0,0,0,0,0.0262,0.0271,0.027,0.0279,0.0286,0.0289,0.0293,0.0291,0.0289,0.0286,0.0274,0.0272,0.0276,0.0264,0.0262,0.0269,0.0251,0.0252,0.0285,0.0289,0.0292,0.0306,0.025,0,0,0,0,0,0.0263,0.0272,0.0279,0.0287,0.029,0.0291,0.0294,0.0295,0.0294,0.0293,0.0286,0.0277,0.0276,0.0275,0.0269,0.0273,0.0271,0.0279,0.0282,0.0285,0.0294,0.0302,0.0307,0.0248,0.0248,0.0248,0,0,0.0265,0.0271,0.0276,0.0287,0.029,0.0305,0.0293,0.0301,0.0314,0.029,0.03,0.0289,0.0279,0.0285,0.0286,0.0278,0.0302,0.0286,0.0289,0.0296,0.0303,0.0309,0.0314,0.0249,0.0248,0.0248,0,0,0.0278,0.0278,0.0292,0.03,0.031,0.0313,0.0317,0.0321,0.0324,0.0331,0.0318,0.0318,0.031,0.0312,0.031,0.0328,0.0319,0.0321,0.0352,0.036,0.0365,0.037,0.0381,0.0387,0.0324,0.0324,0.0324,0,0.0279,0.0299,0.0298,0.0314,0.0326,0.0319,0.034,0.0343,0.0345,0.0354,0.0339,0.0342,0.0327,0.0348,0.035,0.0338,0.0339,0.034,0.0366,0.037,0.0374,0.0385,0.039,0.0326,0.0326,0.0326,0.0326,0,0.0305,0.0321,0.0329,0.035,0.0362,0.0377,0.0384,0.0393,0.0391,0.0395,0.041,0.0393,0.0399,0.0391,0.0374,0.0397,0.0389,0.037,0.036,0.0383,0.0393,0.0397,0.033,0.0329,0.0328,0.0327,0,0,0.0313,0.0343,0.0347,0.0368,0.0384,0.04,0.042,0.0444,0.0469,0.046,0.0492,0.0478,0.0469,0.0467,0.0449,0.0448,0.0471,0.0421,0.042,0.044,0.0493,0.0478,0.0482,0.0457,0.0458,0.0458,0.049,0,0.0336,0.0377,0.0385,0.0427,0.0452,0.0457,0.0482,0.05,0.051,0.0535,0.0523,0.0541,0.05,0.0506,0.05,0.0481,0.0484,0.0464,0.046,0.046,0.0451,0.0487,0.05,0.0528,0.0495,0.0496,0.0496,0,0.0363,0.0389,0.0433,0.048,0.0491,0.0513,0.056,0.0582,0.0609,0.0617,0.0628,0.0619,0.0627,0.0581,0.0573,0.0562,0.0533,0.0511,0.0511,0.0486,0.0454,0.0497,0.0538,0.0517,0.0503,0.0503,0.0502,0,0.0382,0.0426,0.0466,0.048,0.0525,0.0549,0.0574,0.0607,0.0639,0.0672,0.0701,0.0699,0.0715,0.0677,0.0631,0.0605,0.062,0.0578,0.0542,0.054,0.0545,0.0542,0.0572,0.0574,0.0573,0.0573,0.0573,0,0.0409,0.0443,0.0478,0.0502,0.0556,0.0577,0.0637,0.0659,0.0703,0.0759,0.0746,0.0796,0.0738,0.0737,0.0672,0.0635,0.0657,0.0562,0.0552,0.056,0.0559,0.0533,0.0517,0.0575,0.0574,0.0574,0.0574,0,0.043,0.045,0.0501,0.055,0.0567,0.0608,0.0673,0.072,0.0755,0.0829,0.0845,0.088,0.089,0.0829,0.0786,0.0705,0.0648,0.0633,0.0649,0.064,0.056,0.0546,0.0576,0.0566,0.0596,0.0596,0.0596,0,0.0447,0.0473,0.0531,0.0563,0.0587,0.0646,0.0691,0.0738,0.0791,0.0891,0.0934,0.0973,0.1028,0.0964,0.0836,0.074,0.069,0.0658,0.0598,0.0574,0.0552,0.0547,0.0537,0.0627,0.0627,0.0628,0.0628,0,0.0479,0.0496,0.0534,0.0594,0.0645,0.0708,0.0774,0.0823,0.0897,0.0979,0.1095,0.1154,0.1113,0.1045,0.0897,0.0808,0.0654,0.0656,0.0635,0.0588,0.0584,0.0564,0.0588,0.0629,0.0629,0.0629,0.0629,0.0629,0.0498,0.0528,0.057,0.0629,0.0688,0.0761,0.0819,0.091,0.1016,0.1158,0.1209,0.1326,0.1205,0.1023,0.091,0.0686,0.0684,0.0604,0.0594,0.0595,0.0575,0.0601,0.0621,0.0621,0.0621,0.062,0.062,0,0.0516,0.0547,0.0603,0.0671,0.0735,0.0764,0.0869,0.0946,0.1086,0.1245,0.1371,0.1367,0.125,0.1064,0.077,0.0648,0.0599,0.058,0.0584,0.0576,0.0608,0.0596,0.0608,0.0608,0.0608,0.0608,0.0608,0.0608,0.0525,0.0568,0.0594,0.0688,0.0742,0.0832,0.0893,0.1033,0.1159,0.1344,0.1414,0.1453,0.1289,0.0934,0.0695,0.063,0.0575,0.0554,0.0525,0.0547,0.0548,0.055,0.0536,0.0535,0.0535,0.0508,0.0507,0.0507]}],[{"header":{"parameterUnit":"m.s-1","parameterCategory":2,"la1":30.2991,"la2":30.254,"lo1":-89.0895,"lo2":-89.0444,"dy":0.0017,"dx":0.0017,"nx":28,"ny":28,"refTime":"2025-02-07T09:00:00:Z","depth":"2","parameterNumber":2,"parameterNumberName":"U-component_of_CURRENTS"},"data":[0,0,0,0,0,0,0,0,0,0,0,0,0,0,0,0,0,0,0,0,0,0,0,0,0,0,0,0,0,0,0,0,0,0,0,0,0,0,0,0,0,0,0,0,0,0,0,0,0,0,0,0,0,0,0,0,0,0,0.1397,0.1397,0,0.1384,0.1384,0.1383,0.1379,0.1379,0.138,0.138,0.1373,0.1373,0.1372,0,0,0,0,0,0,0,0,0,0,0,0,0,0.1423,0.1422,0.1397,0.1397,0.1397,0.1384,0.1384,0.1383,0.1379,0.1379,0.138,0.138,0.1373,0.1373,0.1372,0,0,0,0,0,0,0,0,0,0,0,0,0,0.141,0.1422,0.1397,0.1394,0.1394,0.1384,0.1384,0.1383,0.1379,0.1379,0.138,0.138,0.1373,0.1373,0.1372,0.1365,0,0,0.1371,0.137,0,0,0,0,0,0,0,0,0.141,0.1409,0.1395,0.1394,0.1394,0.1384,0.139,0.1378,0.1379,0.1384,0.138,0.138,0.1378,0.1377,0.1372,0.1364,0.1364,0.1371,0.137,0.137,0.137,0,0,0,0,0,0,0,0.1411,0.1409,0.1391,0.1395,0.1394,0.1395,0.1393,0.1388,0.1379,0.1383,0.1383,0.1383,0.1377,0.1373,0.1372,0.1364,0.1371,0.137,0.137,0.137,0.1407,0.1409,0,0,0,0,0,0,0.1414,0.141,0.1391,0.1391,0.1404,0.1394,0.1392,0.1386,0.1379,0.1378,0.1383,0.1383,0.1374,0.1373,0.1372,0.1404,0.137,0.137,0.1369,0.1406,0.1408,0.1409,0,0,0,0,0,0,0.1415,0.1412,0.1392,0.1401,0.1399,0.1393,0.1387,0.1386,0.1391,0.1379,0.1378,0.139,0.1374,0.1373,0.1382,0.1402,0.1369,0.1369,0.1405,0.1407,0.1408,0.1441,0,0,0,0,0,0,0.1415,0.1413,0.1413,0.1401,0.1398,0.139,0.1387,0.1386,0.1391,0.1391,0.1385,0.1384,0.1374,0.1383,0.1381,0.1401,0.1369,0.1403,0.1405,0.1408,0.1438,0.1443,0.1448,0,0,0,0,0,0.1416,0.1413,0.1413,0.1411,0.1398,0.139,0.1389,0.1385,0.1391,0.1392,0.1396,0.1384,0.1398,0.1383,0.1381,0.1401,0.1402,0.1405,0.1408,0.1436,0.1442,0.1448,0,0,0,0,0,0,0.1423,0.1412,0.1412,0.1405,0.1402,0.139,0.1392,0.1392,0.1395,0.1402,0.1392,0.1392,0.1406,0.1403,0.1387,0.1422,0.1401,0.1404,0.1423,0.1429,0.1434,0.1437,0.1368,0,0,0,0,0,0.1425,0.1422,0.1412,0.141,0.1408,0.1404,0.1403,0.1402,0.1402,0.1404,0.1401,0.1408,0.1415,0.1422,0.142,0.1436,0.1441,0.1452,0.1457,0.1462,0.1464,0.1504,0.1513,0.1419,0.1419,0.1418,0,0,0.1425,0.1423,0.1419,0.1412,0.141,0.1409,0.1404,0.1406,0.1414,0.1403,0.1416,0.1419,0.1422,0.1439,0.1447,0.1441,0.1489,0.1465,0.1469,0.1469,0.1508,0.1517,0.1525,0.1421,0.142,0.142,0,0,0.1427,0.1425,0.1423,0.1421,0.1422,0.1421,0.1425,0.1421,0.1427,0.1439,0.1439,0.1457,0.1463,0.1473,0.1479,0.1514,0.151,0.1519,0.1551,0.159,0.1598,0.1605,0.1612,0.162,0.1528,0.1529,0.1529,0,0.1431,0.1424,0.1422,0.1423,0.1425,0.1428,0.143,0.1436,0.1439,0.1452,0.145,0.1482,0.148,0.1513,0.1527,0.1524,0.1538,0.1524,0.1596,0.1603,0.161,0.1616,0.1624,0.153,0.153,0.153,0.153,0,0.1425,0.1427,0.1427,0.143,0.1435,0.1437,0.1445,0.1458,0.1473,0.1482,0.1516,0.1522,0.1545,0.1553,0.1549,0.1601,0.1591,0.1592,0.1578,0.1621,0.1625,0.1632,0.1533,0.1532,0.1532,0.1531,0,0,0.1416,0.142,0.1423,0.1426,0.1439,0.144,0.1466,0.1484,0.1505,0.1527,0.1559,0.1583,0.1597,0.1605,0.1611,0.1647,0.1698,0.1645,0.1647,0.1647,0.1771,0.17,0.1701,0.172,0.1722,0.1723,0.175,0,0.1412,0.1413,0.1421,0.143,0.143,0.145,0.147,0.1496,0.1523,0.1554,0.1589,0.1616,0.1615,0.1633,0.1671,0.1689,0.1722,0.169,0.1733,0.1734,0.1662,0.1709,0.1534,0.1539,0.1757,0.1758,0.1759,0,0.14,0.1405,0.1408,0.1428,0.1431,0.1442,0.1481,0.1501,0.1554,0.1578,0.1627,0.1649,0.1702,0.1696,0.1763,0.1747,0.1765,0.1778,0.178,0.1708,0.1678,0.1534,0.1544,0.1772,0.1771,0.177,0.1769,0,0.1386,0.1396,0.1399,0.1403,0.1425,0.1442,0.1463,0.1511,0.1536,0.16,0.163,0.1691,0.1727,0.1771,0.1804,0.1793,0.1873,0.1856,0.1807,0.1801,0.1656,0.1634,0.1912,0.1911,0.1911,0.1911,0.1911,0,0.1373,0.1375,0.1391,0.1392,0.1407,0.1431,0.1462,0.1496,0.1548,0.1582,0.1643,0.168,0.1754,0.1806,0.1825,0.1839,0.1894,0.1817,0.1812,0.166,0.164,0.1845,0.1837,0.1912,0.1912,0.1912,0.1912,0,0.1351,0.1361,0.1362,0.1386,0.1399,0.141,0.1459,0.1475,0.1535,0.1584,0.1609,0.1692,0.1746,0.1804,0.1871,0.1856,0.1878,0.1871,0.1672,0.1643,0.1768,0.1762,0.1804,0.1802,0.18,0.1799,0.1798,0,0.1336,0.1334,0.1356,0.1359,0.137,0.1394,0.141,0.1466,0.1493,0.158,0.1603,0.1678,0.1703,0.1768,0.1758,0.1769,0.1849,0.1623,0.1565,0.1771,0.1762,0.1758,0.1754,0.1381,0.1377,0.1373,0.137,0,0.1308,0.1315,0.132,0.133,0.1341,0.1353,0.1389,0.1406,0.147,0.1498,0.1541,0.1564,0.1616,0.1543,0.1568,0.1555,0.1602,0.1545,0.1835,0.1434,0.1374,0.1365,0.1374,0.1337,0.134,0.1342,0.1344,0.1346,0.129,0.1283,0.129,0.1292,0.1303,0.1301,0.1292,0.132,0.1333,0.1352,0.1426,0.14,0.1422,0.135,0.1308,0.1278,0.1399,0.1334,0.1345,0.136,0.1305,0.1245,0.1172,0.1174,0.1176,0.1178,0.1179,0,0.1258,0.1255,0.1252,0.1249,0.1227,0.1255,0.1263,0.1226,0.1198,0.1223,0.1225,0.1099,0.1038,0.1074,0.0955,0.0947,0.0933,0.0916,0.0883,0.0916,0.0946,0.087,0.0622,0.062,0.0619,0.0617,0,0,0.1244,0.1221,0.1211,0.1167,0.1163,0.1113,0.1095,0.1042,0.1034,0.0964,0.0928,0.1001,0.1035,0.0825,0.0783,0.0683,0.0799,0.0647,0.1092,0.1087,0.1115,0.1181,0.11,0,0,0,0,0]},{"header":{"parameterUnit":"m.s-1","parameterCategory":2,"la1":30.2991,"la2":30.254,"lo1":-89.0895,"lo2":-89.0444,"dy":0.0017,"dx":0.0017,"nx":28,"ny":28,"refTime":"2025-02-07T09:00:00:Z","depth":"2","parameterNumber":3,"parameterNumberName":"V-component_of_CURRENTS"},"data":[0,0,0,0,0,0,0,0,0,0,0,0,0,0,0,0,0,0,0,0,0,0,0,0,0,0,0,0,0,0,0,0,0,0,0,0,0,0,0,0,0,0,0,0,0,0,0,0,0,0,0,0,0,0,0,0,0,0,0.0101,0.0101,0,0.0088,0.0087,0.0087,0.0076,0.0076,0.0076,0.0076,0.0052,0.0051,0.005,0,0,0,0,0,0,0,0,0,0,0,0,0,0.0099,0.0099,0.0101,0.0101,0.01,0.0088,0.0087,0.0087,0.0076,0.0076,0.0076,0.0076,0.0052,0.0051,0.005,0,0,0,0,0,0,0,0,0,0,0,0,0,0.0094,0.0099,0.0101,0.0094,0.0093,0.0088,0.0087,0.0087,0.0076,0.0076,0.0076,0.0076,0.0052,0.0051,0.005,0.0047,0,0,0.0048,0.0047,0,0,0,0,0,0,0,0,0.0094,0.0094,0.0095,0.0094,0.0094,0.0084,0.0078,0.0073,0.0076,0.0082,0.0076,0.0076,0.0062,0.006,0.0057,0.0046,0.0045,0.0047,0.0047,0.0047,0.0046,0,0,0,0,0,0,0,0.0094,0.0094,0.0095,0.0095,0.0094,0.0085,0.0085,0.0077,0.0072,0.0082,0.0081,0.008,0.0061,0.0058,0.0057,0.0044,0.0047,0.0047,0.0046,0.0046,0.0036,0.0036,0,0,0,0,0,0,0.0098,0.0094,0.0095,0.0095,0.0094,0.0086,0.0085,0.0087,0.0072,0.007,0.0081,0.008,0.006,0.0058,0.0056,0.0063,0.0047,0.0046,0.0045,0.0036,0.0036,0.0036,0,0,0,0,0,0,0.0098,0.0098,0.0096,0.0094,0.0094,0.0086,0.0088,0.0087,0.0085,0.0072,0.0069,0.0081,0.006,0.0057,0.0052,0.0062,0.0045,0.0045,0.0035,0.0036,0.0036,0.007,0,0,0,0,0,0,0.0098,0.0098,0.01,0.0095,0.0094,0.0098,0.0088,0.0086,0.0085,0.0084,0.0071,0.0069,0.0059,0.0054,0.0051,0.006,0.0044,0.0035,0.0035,0.0036,0.0069,0.0072,0.0074,0,0,0,0,0,0.0098,0.0102,0.01,0.01,0.0097,0.0098,0.0097,0.009,0.0085,0.0088,0.0079,0.0069,0.0055,0.0053,0.005,0.0059,0.0035,0.0035,0.0036,0.0067,0.0071,0.0074,0,0,0,0,0,0,0.01,0.0101,0.0099,0.0102,0.0102,0.0096,0.0096,0.0093,0.0087,0.0084,0.0072,0.0069,0.0068,0.0058,0.0056,0.0057,0.0044,0.0044,0.0069,0.0072,0.0075,0.0085,0.0043,0,0,0,0,0,0.0102,0.0106,0.0105,0.0108,0.0108,0.0103,0.0102,0.0098,0.0093,0.009,0.0083,0.0073,0.0068,0.0066,0.0058,0.0058,0.0051,0.0062,0.0065,0.0067,0.0073,0.0074,0.0077,0.0038,0.0038,0.0038,0,0,0.0103,0.0104,0.0106,0.0109,0.0106,0.0113,0.0102,0.0102,0.011,0.0088,0.0094,0.0082,0.007,0.0072,0.007,0.0065,0.0073,0.0068,0.007,0.0075,0.0075,0.0079,0.0082,0.0038,0.0038,0.0038,0,0,0.011,0.0109,0.0117,0.012,0.0121,0.0119,0.0121,0.0118,0.0119,0.0121,0.0109,0.0105,0.0095,0.0092,0.0089,0.0102,0.0087,0.0096,0.012,0.0121,0.0124,0.0127,0.0119,0.0121,0.0099,0.0099,0.0099,0,0.0111,0.0123,0.0119,0.0129,0.0136,0.0124,0.0137,0.0137,0.0133,0.0139,0.0128,0.0122,0.0108,0.0118,0.0119,0.0109,0.0102,0.011,0.0125,0.0128,0.0131,0.0121,0.0123,0.0101,0.0101,0.01,0.01,0,0.0128,0.0137,0.0142,0.0154,0.016,0.0167,0.017,0.0174,0.0171,0.0172,0.0179,0.0161,0.0161,0.0153,0.0139,0.0151,0.0137,0.0128,0.0119,0.0137,0.0125,0.0126,0.0103,0.0103,0.0102,0.0102,0,0,0.0131,0.0151,0.0153,0.0169,0.0175,0.0185,0.0198,0.0213,0.0229,0.0219,0.0241,0.0225,0.0214,0.0209,0.0191,0.0188,0.0192,0.0166,0.0165,0.0161,0.0187,0.018,0.018,0.0186,0.0186,0.0187,0.017,0,0.0147,0.0175,0.018,0.0209,0.0226,0.0227,0.0246,0.0256,0.026,0.0276,0.0262,0.0271,0.0237,0.0238,0.0229,0.0205,0.0197,0.0197,0.0167,0.0166,0.0161,0.0182,0.0195,0.0182,0.0171,0.0171,0.0171,0,0.0164,0.0183,0.0215,0.0249,0.0257,0.0272,0.0304,0.032,0.0335,0.034,0.0341,0.0329,0.0324,0.0292,0.0261,0.0262,0.0227,0.0203,0.0202,0.0187,0.0162,0.0163,0.0185,0.0173,0.0173,0.0173,0.0173,0,0.0177,0.0209,0.0238,0.0249,0.0281,0.03,0.0318,0.0339,0.0366,0.0382,0.0402,0.0385,0.0388,0.0346,0.0292,0.0278,0.0257,0.0233,0.0193,0.0191,0.0193,0.0191,0.0213,0.0213,0.0213,0.0213,0.0213,0,0.0195,0.0219,0.0248,0.0266,0.0309,0.0323,0.037,0.0385,0.0416,0.046,0.0437,0.0465,0.0402,0.038,0.0317,0.0264,0.0277,0.0204,0.0193,0.0204,0.0203,0.0187,0.0184,0.0212,0.0212,0.0213,0.0213,0,0.0206,0.0222,0.0261,0.03,0.0317,0.0349,0.0406,0.0441,0.0465,0.0521,0.0532,0.053,0.0505,0.0435,0.0373,0.0307,0.0251,0.0226,0.0239,0.0229,0.0175,0.0174,0.018,0.018,0.018,0.018,0.018,0,0.0214,0.0234,0.0286,0.0315,0.0335,0.0385,0.0424,0.0462,0.0507,0.0568,0.0601,0.0594,0.06,0.0501,0.0394,0.0292,0.0266,0.0223,0.0199,0.0187,0.0174,0.0174,0.0173,0.0209,0.0209,0.0209,0.0209,0,0.0232,0.0248,0.0281,0.034,0.0385,0.0442,0.0503,0.0548,0.0606,0.0654,0.0716,0.0724,0.0642,0.0552,0.0408,0.0331,0.0239,0.0221,0.0219,0.0216,0.0213,0.0201,0.02,0.021,0.021,0.021,0.021,0.021,0.0246,0.027,0.0314,0.037,0.0424,0.0496,0.0551,0.0624,0.0703,0.0782,0.0787,0.0796,0.0693,0.0513,0.0395,0.0257,0.0258,0.0194,0.0195,0.0195,0.0201,0.0199,0.0194,0.0194,0.0194,0.0194,0.0193,0,0.0264,0.0294,0.0344,0.0413,0.0471,0.05,0.0602,0.0663,0.0763,0.0821,0.0864,0.0756,0.0664,0.0535,0.0345,0.023,0.0213,0.0178,0.0189,0.019,0.019,0.0196,0.0187,0.0186,0.0186,0.0186,0,0,0.0275,0.0318,0.0343,0.0436,0.0489,0.0577,0.0638,0.0729,0.0793,0.0848,0.0848,0.0844,0.0702,0.0558,0.0412,0.0304,0.0265,0.0271,0.029,0.0321,0.0322,0.0214,0.0226,0,0,0,0,0]}],[{"header":{"parameterUnit":"m.s-1","parameterCategory":2,"la1":30.2991,"la2":30.254,"lo1":-89.0895,"lo2":-89.0444,"dy":0.0017,"dx":0.0017,"nx":28,"ny":28,"refTime":"2025-02-07T09:00:00:Z","depth":"4","parameterNumber":2,"parameterNumberName":"U-component_of_CURRENTS"},"data":[0,0,0,0,0,0,0,0,0,0,0,0,0,0,0,0,0,0,0,0,0,0,0,0,0,0,0,0,0,0,0,0,0,0,0,0,0,0,0,0,0,0,0,0,0,0,0,0,0,0,0,0,0,0,0,0,0,0,0.0716,0.0717,0,0.0743,0.0743,0.0744,0.0767,0.0767,0.0767,0.0768,0.08,0.0801,0.0801,0,0,0,0,0,0,0,0,0,0,0,0,0,0.0707,0.0706,0.0716,0.0717,0.0717,0.0743,0.0743,0.0744,0.0767,0.0767,0.0767,0.0768,0.08,0.0801,0.0801,0,0,0,0,0,0,0,0,0,0,0,0,0,0.0719,0.0706,0.0716,0.0732,0.0734,0.0743,0.0743,0.0744,0.0767,0.0767,0.0767,0.0768,0.08,0.0801,0.0801,0.0797,0,0,0.0804,0.0804,0,0,0,0,0,0,0,0,0.0718,0.0719,0.0729,0.0731,0.0733,0.0753,0.0752,0.0762,0.0766,0.0753,0.0768,0.0768,0.0785,0.0787,0.079,0.0798,0.08,0.0804,0.0805,0.0805,0.0805,0,0,0,0,0,0,0,0.0717,0.0718,0.0726,0.073,0.0732,0.0746,0.0748,0.0754,0.0766,0.0755,0.0756,0.076,0.0786,0.0789,0.0791,0.08,0.0804,0.0805,0.0805,0.0806,0.0861,0.0861,0,0,0,0,0,0,0.0714,0.0717,0.0725,0.0727,0.0728,0.0745,0.0748,0.0745,0.0766,0.0769,0.076,0.0761,0.0787,0.079,0.0792,0.0838,0.0805,0.0806,0.0806,0.086,0.0861,0.0862,0,0,0,0,0,0,0.0713,0.0714,0.0724,0.0724,0.0726,0.0745,0.0742,0.0746,0.0768,0.077,0.0774,0.0781,0.0788,0.0791,0.0814,0.0837,0.0806,0.0807,0.0858,0.086,0.0861,0.0897,0,0,0,0,0,0,0.0713,0.0713,0.0721,0.0723,0.0726,0.074,0.0742,0.0746,0.0769,0.0772,0.0789,0.0791,0.0788,0.0813,0.0815,0.0838,0.0808,0.0857,0.0859,0.0861,0.0895,0.0899,0.0903,0,0,0,0,0,0.0712,0.0716,0.0721,0.0723,0.0732,0.0741,0.0744,0.0758,0.077,0.078,0.0795,0.0792,0.0826,0.0815,0.0817,0.084,0.0856,0.0859,0.0861,0.0892,0.0898,0.0903,0,0,0,0,0,0,0.0718,0.0719,0.0724,0.0729,0.074,0.0746,0.0761,0.077,0.0789,0.08,0.0801,0.0805,0.0833,0.0832,0.0819,0.0862,0.0842,0.0845,0.0865,0.0871,0.0875,0.0876,0.0808,0,0,0,0,0,0.0721,0.0725,0.073,0.0737,0.0744,0.0757,0.0768,0.0778,0.0791,0.0801,0.0812,0.0827,0.084,0.0852,0.086,0.0883,0.0886,0.0901,0.0905,0.0909,0.0911,0.0942,0.0949,0.0869,0.0869,0.0869,0,0,0.0726,0.0728,0.0731,0.074,0.0751,0.0763,0.0765,0.0787,0.0802,0.0801,0.0833,0.0843,0.0849,0.0874,0.0888,0.0879,0.0933,0.0912,0.0915,0.0915,0.0945,0.0952,0.0959,0.087,0.087,0.087,0,0,0.0734,0.0741,0.0747,0.0757,0.0777,0.0783,0.0794,0.081,0.0826,0.0854,0.0858,0.0883,0.0904,0.0912,0.0918,0.0953,0.0953,0.0961,0.0988,0.1017,0.1024,0.103,0.1039,0.1046,0.0966,0.0966,0.0966,0,0.0745,0.0747,0.0753,0.0764,0.0776,0.0794,0.0808,0.0824,0.0848,0.0866,0.0871,0.0915,0.0921,0.095,0.0963,0.0964,0.0976,0.0966,0.1023,0.1029,0.1035,0.1043,0.105,0.0968,0.0968,0.0968,0.0968,0,0.0751,0.0762,0.077,0.0786,0.0801,0.0818,0.0836,0.0861,0.0886,0.0902,0.0945,0.0957,0.0985,0.0992,0.099,0.1034,0.1027,0.1023,0.1009,0.1045,0.1051,0.1057,0.0971,0.097,0.097,0.0969,0,0,0.0749,0.0769,0.0775,0.0785,0.0815,0.0824,0.0859,0.0888,0.0914,0.095,0.0985,0.1015,0.1033,0.1041,0.1046,0.1071,0.1118,0.107,0.1071,0.1077,0.1178,0.1083,0.108,0.1132,0.1134,0.1135,0.1164,0,0.0755,0.0773,0.0785,0.081,0.082,0.0848,0.0874,0.0908,0.0942,0.0979,0.1011,0.1045,0.1048,0.1069,0.1098,0.1112,0.1138,0.111,0.1143,0.1143,0.1053,0.1086,0.114,0.1168,0.117,0.1171,0.1172,0,0.0754,0.0766,0.0789,0.0815,0.0825,0.0847,0.0894,0.092,0.0976,0.1006,0.1055,0.1079,0.1125,0.1121,0.1177,0.1164,0.1178,0.1185,0.1186,0.1089,0.106,0.1126,0.1183,0.1182,0.1181,0.1181,0.118,0,0.0736,0.0766,0.0784,0.0794,0.083,0.0855,0.0882,0.0936,0.0963,0.103,0.1062,0.1117,0.1153,0.1187,0.1211,0.1206,0.1262,0.1252,0.1178,0.1171,0.1232,0.1225,0.1295,0.1295,0.1295,0.1294,0.1294,0,0.0724,0.0739,0.078,0.0789,0.0817,0.085,0.0891,0.0927,0.0984,0.1015,0.1079,0.1107,0.1176,0.1214,0.1228,0.1219,0.1281,0.1184,0.1176,0.1245,0.124,0.1236,0.1229,0.1296,0.1295,0.1295,0.1295,0,0.0696,0.0723,0.0744,0.079,0.0809,0.0832,0.0891,0.0913,0.0978,0.1023,0.1047,0.1119,0.1163,0.1211,0.126,0.1228,0.1232,0.1214,0.1279,0.1274,0.1116,0.1111,0.1129,0.1126,0.1124,0.1122,0.112,0,0.0679,0.0688,0.0741,0.0756,0.078,0.0822,0.0844,0.0907,0.0927,0.1013,0.1021,0.1094,0.1133,0.1126,0.1182,0.1198,0.1187,0.1175,0.1148,0.1111,0.1102,0.11,0.1098,0.1116,0.1115,0.1114,0.1114,0,0.0646,0.0675,0.0692,0.0724,0.0753,0.0771,0.0809,0.0817,0.0882,0.0956,0.0969,0.0993,0.1036,0.1067,0.109,0.11,0.1173,0.1148,0.1153,0.1128,0.1095,0.1088,0.1089,0.1105,0.1106,0.1107,0.1108,0,0.0626,0.063,0.0659,0.0679,0.0709,0.0702,0.073,0.0745,0.0774,0.0865,0.0867,0.0944,0.1018,0.1016,0.1035,0.1039,0.1022,0.0981,0.0995,0.1005,0.0951,0.0891,0.0833,0,0,0,0,0,0.0602,0.0595,0.0608,0.0616,0.0639,0.0655,0.0693,0.072,0.0789,0.0771,0.0815,0.0847,0.0875,0.0914,0.0894,0.0983,0.1028,0.0954,0.0988,0.1055,0.1066,0.1014,0,0,0,0,0,0,0.0583,0.0594,0.0588,0.0558,0.0551,0.0561,0.0582,0.0625,0.0616,0.0698,0.072,0.0787,0.0832,0.0883,0.0878,0.089,0.0889,0.1006,0.1003,0.105,0.1059,0.1067,0.1018,0,0,0,0,0]},{"header":{"parameterUnit":"m.s-1","parameterCategory":2,"la1":30.2991,"la2":30.254,"lo1":-89.0895,"lo2":-89.0444,"dy":0.0017,"dx":0.0017,"nx":28,"ny":28,"refTime":"2025-02-07T09:00:00:Z","depth":"4","parameterNumber":3,"parameterNumberName":"V-component_of_CURRENTS"},"data":[0,0,0,0,0,0,0,0,0,0,0,0,0,0,0,0,0,0,0,0,0,0,0,0,0,0,0,0,0,0,0,0,0,0,0,0,0,0,0,0,0,0,0,0,0,0,0,0,0,0,0,0,0,0,0,0,0,0,0.0087,0.0087,0,0.0074,0.0074,0.0073,0.0066,0.0066,0.0066,0.0066,0.0047,0.0046,0.0046,0,0,0,0,0,0,0,0,0,0,0,0,0,0.009,0.009,0.0087,0.0087,0.0087,0.0074,0.0074,0.0073,0.0066,0.0066,0.0066,0.0066,0.0047,0.0046,0.0046,0,0,0,0,0,0,0,0,0,0,0,0,0,0.0084,0.009,0.0087,0.0081,0.0081,0.0074,0.0074,0.0073,0.0066,0.0066,0.0066,0.0066,0.0047,0.0046,0.0046,0.0042,0,0,0.0043,0.0043,0,0,0,0,0,0,0,0,0.0085,0.0084,0.0082,0.0082,0.0081,0.0071,0.0068,0.0063,0.0066,0.0071,0.0066,0.0066,0.0054,0.0053,0.0051,0.0041,0.004,0.0043,0.0043,0.0043,0.0042,0,0,0,0,0,0,0,0.0085,0.0084,0.0082,0.0082,0.0081,0.0074,0.0073,0.0067,0.0063,0.0071,0.007,0.0069,0.0054,0.0051,0.005,0.004,0.0043,0.0043,0.0042,0.0042,0.0035,0.0035,0,0,0,0,0,0,0.0088,0.0085,0.0082,0.0081,0.0083,0.0074,0.0073,0.0074,0.0063,0.0062,0.0069,0.0069,0.0053,0.0051,0.005,0.0055,0.0043,0.0042,0.0042,0.0034,0.0035,0.0035,0,0,0,0,0,0,0.0088,0.0088,0.0083,0.0083,0.0082,0.0074,0.0076,0.0074,0.0073,0.0062,0.006,0.007,0.0053,0.0051,0.0047,0.0054,0.0042,0.0041,0.0034,0.0034,0.0035,0.006,0,0,0,0,0,0,0.0088,0.0088,0.0089,0.0083,0.0082,0.0082,0.0076,0.0074,0.0072,0.0072,0.0062,0.006,0.0052,0.0048,0.0047,0.0053,0.004,0.0034,0.0034,0.0035,0.0059,0.0061,0.0063,0,0,0,0,0,0.0088,0.0091,0.009,0.0089,0.0084,0.0082,0.0081,0.0076,0.0073,0.0074,0.0068,0.006,0.005,0.0048,0.0046,0.0052,0.0034,0.0034,0.0035,0.0058,0.006,0.0063,0,0,0,0,0,0,0.0091,0.009,0.0089,0.009,0.0089,0.0081,0.0081,0.0078,0.0074,0.0072,0.0062,0.006,0.006,0.0052,0.005,0.0051,0.0041,0.0041,0.0059,0.0062,0.0064,0.0071,0.004,0,0,0,0,0,0.0093,0.0096,0.0093,0.0094,0.0094,0.0088,0.0086,0.0083,0.0078,0.0077,0.0071,0.0064,0.006,0.0058,0.0052,0.0052,0.0043,0.0054,0.0057,0.0058,0.0062,0.0056,0.0058,0.0037,0.0037,0.0037,0,0,0.0094,0.0094,0.0095,0.0095,0.0092,0.0096,0.0087,0.0086,0.0091,0.0075,0.0079,0.007,0.0062,0.0062,0.0062,0.0057,0.0059,0.0059,0.0061,0.0064,0.0057,0.0059,0.0061,0.0037,0.0037,0.0037,0,0,0.0099,0.0099,0.0103,0.0104,0.0102,0.01,0.0102,0.0097,0.0098,0.01,0.0091,0.0088,0.0081,0.0078,0.0075,0.0085,0.007,0.0082,0.0098,0.0092,0.0094,0.0095,0.0084,0.0085,0.0083,0.0083,0.0083,0,0.01,0.0107,0.0104,0.0109,0.0113,0.0105,0.0113,0.0112,0.0108,0.0112,0.0105,0.01,0.009,0.0095,0.0097,0.009,0.0082,0.009,0.0095,0.0097,0.0098,0.0086,0.0086,0.0084,0.0084,0.0084,0.0084,0,0.0109,0.0116,0.0118,0.0125,0.0129,0.0133,0.0134,0.0137,0.0137,0.0137,0.0141,0.0128,0.0126,0.0122,0.0112,0.0116,0.0106,0.0099,0.009,0.0101,0.0088,0.0088,0.0086,0.0086,0.0085,0.0085,0,0,0.011,0.0123,0.0124,0.0135,0.014,0.0145,0.0155,0.0164,0.0176,0.0169,0.0183,0.0172,0.0163,0.0159,0.0146,0.014,0.0136,0.0123,0.0122,0.0114,0.0118,0.0109,0.0108,0.0129,0.0129,0.0129,0.0105,0,0.0119,0.0136,0.0141,0.0161,0.0171,0.0173,0.0187,0.0194,0.0197,0.0207,0.0196,0.0201,0.0178,0.0179,0.0168,0.0147,0.0136,0.0143,0.0107,0.0106,0.0098,0.0108,0.013,0.0105,0.0105,0.0104,0.0104,0,0.0127,0.014,0.0162,0.0187,0.0193,0.0204,0.0228,0.024,0.0249,0.0253,0.0251,0.0239,0.0231,0.021,0.0178,0.0183,0.0152,0.0132,0.013,0.0114,0.0096,0.0091,0.0103,0.0103,0.0104,0.0104,0.0104,0,0.0133,0.0156,0.0177,0.0184,0.0209,0.0224,0.0239,0.0254,0.0275,0.0282,0.0296,0.0276,0.0276,0.0237,0.019,0.0185,0.0152,0.014,0.0101,0.01,0.0104,0.0102,0.0114,0.0114,0.0115,0.0115,0.0115,0,0.0141,0.0159,0.0183,0.0195,0.0228,0.0241,0.0277,0.0287,0.0311,0.0341,0.0321,0.0334,0.0283,0.0256,0.0204,0.0153,0.0161,0.0107,0.0096,0.0114,0.0114,0.0103,0.0102,0.0114,0.0114,0.0114,0.0114,0,0.0144,0.0158,0.0186,0.0218,0.0232,0.0257,0.0306,0.0333,0.0351,0.0389,0.0395,0.0382,0.0349,0.029,0.0228,0.0179,0.0126,0.0102,0.0126,0.0116,0.0073,0.0074,0.0062,0.0062,0.0061,0.0061,0.0061,0,0.0146,0.016,0.0202,0.0226,0.0243,0.0284,0.0318,0.0349,0.0382,0.0419,0.0438,0.0418,0.04,0.0309,0.024,0.0141,0.0122,0.0088,0.0079,0.0079,0.0069,0.007,0.0071,0.006,0.006,0.006,0.006,0,0.0152,0.0168,0.0192,0.024,0.0279,0.0327,0.0376,0.0403,0.0446,0.0461,0.0475,0.0431,0.0394,0.0314,0.0237,0.0164,0.0108,0.0083,0.0084,0.0075,0.0076,0.0067,0.0069,0.0059,0.0059,0.0059,0.0059,0,0.0159,0.0176,0.0211,0.0256,0.0305,0.0359,0.0385,0.0428,0.0461,0.0497,0.0498,0.0456,0.0431,0.0326,0.0256,0.0184,0.0162,0.0127,0.0124,0.0125,0.0146,0.0157,0.0158,0,0,0,0,0,0.0165,0.0188,0.0227,0.0278,0.0328,0.036,0.0421,0.0447,0.0486,0.0498,0.05,0.0463,0.037,0.0331,0.0258,0.0242,0.0144,0.0152,0.0102,0.0051,0.0053,0.0065,0,0,0,0,0,0,0.0171,0.0204,0.0225,0.029,0.0328,0.0388,0.043,0.0458,0.0466,0.0489,0.0441,0.0428,0.0336,0.0407,0.025,0.023,0.0184,0.0112,0.011,0.005,0.0052,0.0053,0.0066,0,0,0,0,0]}]]